Location: Hilton Head Island
(32.2163°N, 80.7526°W)
Time: 19:15:25
(UTC-05:00)

Tiangong - Pass Details

Date: 01 February 2026
Orbit: 386 x 392 km, 41.5° (Epoch: 10 February)

Event Time Altitude Azimuth Distance (km) Brightness Sun altitude
Exits shadow 05:29:21 32° 144° (SE) 695 -0.5 -23.0°
Drops below altitude 10° 05:31:17 10° 131° (SE) 1,420 1.5 -22.6°
Sets 05:33:22 0° 128° (SE) 2,274 2.7 -22.1°
